Regional Weather Roundup
Issued by NWS

Home | Current Version | Previous Version | Graphics & Text | Print | Product List | Glossary On
Versions: 1 2 3 4 5 6 7 8 9 10 11 12 13 14 15 16 17 18 19 20 21 22 23 24 25 26 27 28 29 30 31 32 33 34 35 36 37 38 39 40 41 42 43 44 45 46 47 48 49 50
000
ASUS44 KMEG 021410
RWRTN
TENNESSEE HOURLY STATE WEATHER ROUNDUP
NATIONAL WEATHER SERVICE MEMPHIS TN
900 AM CDT THU OCT 02 2014

TNZ002-004-019-021-049-052-054-088>092-021500-
WEST TENNESSEE

CITY           SKY/WX    TMP DP  RH WIND       PRES   REMARKS
MEMPHIS INTL   CLOUDY    75  70  84 S9        29.96S
NWS MEMPHIS      N/A     74 N/A N/A MISG        N/A
JACKSON        SUNNY     75  67  76 S9        29.98S
DYERSBURG      CLOUDY    73  57  56 S7        29.98R
UNION CITY     MOSUNNY   70  64  83 S6        29.96S
PARIS          PTSUNNY   72  63  73 S7        30.00S
HUNTINGDON     PTSUNNY   70  63  78 S6        29.99S
LEXINGTON      SUNNY     73  64  73 S6        30.00S
SAVANNAH       SUNNY     75  68  78 SE7       30.01S
$$

TNZ008-025-027-028-033-062-065-066-021500-
NORTH MIDDLE TENNESSEE

CITY           SKY/WX    TMP DP  RH WIND       PRES   REMARKS
NASHVILLE      PTSUNNY   73  62  68 S6        30.06R
PORTLAND       MOSUNNY   72  61  68 S10       30.04
CLARKSVILLE    CLOUDY    69  62  78 S5        30.01S
LEBANON        PTSUNNY   75  62  64 S9        30.05R
SMYRNA         PTSUNNY   72  62  70 S6        30.07R
MURFREESBORO   MOSUNNY   74  61  63 S5        30.06R
COOKEVILLE     SUNNY     73  63  68 S6        30.09S
LIVINGSTON     SUNNY     71  58  63 S5        30.10R
GALLATIN       PTSUNNY   67  62  84 CALM      30.07R
CROSSVILLE     SUNNY     73  60  63 VRB3      30.14R
$$

TNZ061-075-076-078-094-096-097-021500-
SOUTH MIDDLE TENNESSEE

CITY           SKY/WX    TMP DP  RH WIND       PRES   REMARKS
LEWISBURG      PTSUNNY   73  63  71 S8        30.06R
FAYETTEVILLE   SUNNY     72  61  68 SE8       30.09R
TULLAHOMA      SUNNY     72  61  68 S5        30.10R
WINCHESTER     SUNNY     73  63  68 SE7       30.09S
MCMINNVILLE    SUNNY     72  68  88 CALM      30.10R
COLUMBIA       MOSUNNY   73  72  94 S6        30.04R
SHELBYVILLE    CLOUDY    73  64  73 S7        30.09R
$$

TNZ017-018-042-046-047-021500-
NORTHEAST TENNESSEE

CITY           SKY/WX    TMP DP  RH WIND       PRES   REMARKS
TRI CITIES     MOSUNNY   63  55  75 CALM      30.16S
ELIZABETHTON   SUNNY     63  55  77 E5        30.16S
$$

TNZ012-013-036-069-073-074-021500-
CENTRAL EAST TENNESSEE

CITY           SKY/WX    TMP DP  RH WIND       PRES   REMARKS
KNOXVILLE      SUNNY     66  58  75 VRB3      30.13R
OAK RIDGE      SUNNY     63  59  87 VRB3      30.15S
GATLINBURG     MOSUNNY   63  55  77 E3        30.13S
MORRISTOWN     MOSUNNY   64  55  72 E3        30.16R
$$

TNZ083-085-099-021500-
SOUTHEAST TENNESSEE

CITY           SKY/WX    TMP DP  RH WIND       PRES   REMARKS
CHATTANOOGA    MOSUNNY   69  62  78 CALM      30.12R
$$

SKY/WX REPORTED AS FAIR MEANS FEW OR NO CLOUDS BELOW
12 THOUSAND FEET.



USA.gov is the U.S. government's official web portal to all federal, state and local government web resources and services.